Wind_Speed
13 16 11 11 24 27 24 21 13 18 18 12 11 11 11 14 15 16 15 15 15 14 12 16 20 25 26 27 32 33 33 33 32 32 32 30 30 28 28 27 25 24 19 16
5 7 5 20 24 23 27 21 19 18 15 13 15 14 14 15 17 17 16 16 16 14 13 14 17 18 20 23 23 25 28 30 31 31 30 30 28 28 24 25 23 20 18 11
5 18 5 8 19 16 17 21 15 17 9 14 16 15 15 16 16 16 16 15 15 14 15 18 19 17 17 17 17 20 22 20 24 24 23 23 26 26 22 17 14 14 9 10
5 10 6 2 16 8 19 19 19 16 10 10 12 14 16 15 15 15 15 15 14 13 15 16 16 17 14 15 14 17 19 18 21 20 21 21 21 21 21 21 15 11 12 13
4 5 3 7 15 7 7 12 16 14 14 13 5 3 15 15 14 14 14 13 16 17 17 17 17 13 12 15 16 17 19 17 16 16 15 12 15 15 16 20 19 18 13 11
3 3 6 9 18 12 2 10 14 12 13 14 12 8 8 14 14 13 16 16 18 18 17 20 22 21 18 16 16 16 17 17 15 13 14 14 13 14 14 15 16 16 16 16
3 2 3 9 17 5 6 5 11 11 12 10 7 4 7 10 12 15 16 19 20 19 18 18 20 20 18 17 19 18 17 16 16 17 18 16 16 15 15 16 18 20 19 18
2 3 4 10 8 5 2 5 7 9 8 8 8 10 10 11 12 13 15 15 15 14 16 16 16 14 13 15 16 18 19 18 18 19 20 19 22 22 19 15 13 17 19 23
3 2 4 5 5 6 6 5 4 4 4 5 4 5 6 8 9 10 11 11 12 14 13 14 16 16 15 16 17 17 17 19 20 20 20 21 21 24 21 19 17 16 13 16
2 1 5 6 5 4 1 1 2 3 3 3 4 4 6 7 8 9 12 13 15 15 17 19 18 17 17 20 19 19 20 19 19 20 21 20 20 20 20 21 20 18 18 17
4 6 6 3 3 6 3 2 1 1 3 5 7 8 8 8 8 12 14 15 15 15 18 20 19 18 17 20 21 22 21 22 21 20 22 23 21 19 20 23 23 23 23 23
3 2 3 8 6 1 3 1 2 4 5 4 3 5 6 6 9 9 10 14 16 17 21 19 20 22 21 24 24 23 22 20 21 22 23 23 22 25 22 23 27 29 32 35
3 1 6 10 5 1 2 2 1 2 3 6 7 7 9 10 12 14 15 16 15 14 17 18 20 20 20 25 24 23 24 26 25 24 23 22 24 23 23 24 24 26 29 31
5 3 4 3 3 4 3 2 1 3 5 6 8 10 10 12 16 17 17 19 19 20 19 19 18 18 20 19 16 20 23 25 24 24 25 27 27 27 25 25 23 23 22 26
5 4 3 3 1 3 2 1 4 5 6 7 8 9 10 10 12 15 17 19 20 19 20 22 19 21 26 24 21 22 21 19 22 24 25 26 27 26 25 25 23 25 24 23
5 3 3 3 4 5 5 5 6 6 5 9 11 12 10 10 15 16 19 19 16 16 21 22 22 24 32 31 23 23 22 24 26 24 25 24 25 26 26 25 26 25 23 22
4 3 3 3 3 5 6 5 4 6 9 11 14 14 13 13 16 18 19 18 20 22 23 23 20 26 30 21 21 22 23 24 24 24 23 24 24 23 24 25 24 24 24 25
2 3 3 2 2 4 5 6 7 10 12 15 15 17 15 14 14 19 19 20 21 23 21 19 17 25 23 20 22 23 24 24 23 23 23 23 22 24 23 22 22 21 22 23
4 4 3 2 2 4 5 6 8 10 12 14 15 13 15 17 18 20 20 19 17 17 18 18 21 23 23 22 24 23 22 23 22 22 21 21 20 20 19 18 17 17 17 18
4 3 1 1 3 3 5 6 7 9 14 14 16 15 16 19 20 21 19 16 14 16 18 18 23 20 20 21 25 22 21 20 22 22 21 21 21 22 21 19 19 18 17 15
5 4 3 2 2 1 3 5 8 10 12 12 10 10 13 17 16 18 15 14 14 16 18 17 17 15 19 21 22 20 20 20 21 21 21 22 22 22 20 19 18 16 14 11
7 7 6 5 3 1 4 6 6 8 10 10 11 12 14 16 18 16 13 12 19 18 18 16 16 19 19 20 17 18 19 18 18 19 20 21 21 20 20 20 19 17 14 11
8 6 5 6 4 1 3 4 5 7 8 8 11 14 12 13 14 14 13 21 19 18 19 16 17 19 20 16 15 15 16 15 16 16 19 20 21 21 19 20 20 19 18 15
9 9 7 6 4 2 2 3 5 5 5 5 8 14 15 17 18 10 16 18 16 16 15 16 17 18 16 14 14 16 16 16 16 17 17 18 20 21 21 21 20 21 21 21
13 9 8 8 5 3 2 1 3 3 5 5 8 11 13 11 9 21 19 18 17 15 14 13 16 16 14 15 15 15 15 16 17 16 16 16 17 20 22 21 21 20 19 19
12 12 12 10 7 5 4 2 1 2 4 6 7 10 14 15 16 16 15 16 15 15 14 14 16 16 16 17 15 15 15 16 18 17 16 16 16 16 17 19 20 19 18 17
10 12 9 6 6 7 5 4 3 2 2 3 6 10 13 15 16 16 14 15 15 14 13 13 15 16 17 19 18 15 16 17 19 19 16 15 15 15 15 15 16 17 18 20
Wind_Direction
272 287 329 344 6 13 20 21 53 57 48 30 61 40 41 37 43 48 50 48 53 56 53 41 38 39 29 32 34 34 42 40 33 34 36 37 41 46 52 53 50 53 48 63
298 335 315 23 11 21 24 21 41 49 51 44 54 49 48 46 43 47 47 44 46 47 45 45 35 40 43 40 40 42 40 38 34 32 27 24 33 35 37 46 41 46 38 19
300 337 92 4 3 23 33 24 18 43 30 32 42 41 35 38 40 37 34 35 35 38 33 30 36 34 31 39 31 40 39 24 30 27 21 14 25 21 28 36 42 27 11 32
297 342 55 166 12 23 57 27 17 27 35 58 55 51 39 29 33 35 30 23 22 23 31 29 26 30 27 33 27 29 32 22 16 15 4 7 12 5 4 12 13 1 1 355
337 340 313 16 1 357 47 37 16 15 11 14 243 347 35 18 22 22 15 7 7 7 7 15 23 30 30 26 23 21 23 15 18 7 357 360 8 347 358 341 349 349 332 299
357 20 6 356 337 340 294 45 5 8 13 2 19 27 8 357 8 11 12 11 7 5 13 15 8 11 19 24 25 17 8 5 4 352 360 354 354 342 350 329 333 317 312 319
12 25 286 331 340 335 51 353 339 5 10 13 40 35 340 1 10 6 7 7 4 7 11 12 10 7 11 10 5 355 353 356 348 354 350 348 338 339 336 329 324 316 309 304
339 4 351 5 353 42 295 313 355 19 20 8 6 3 3 4 3 4 4 3 3 2 3 359 5 8 4 358 349 348 344 344 341 343 340 334 337 334 329 320 313 314 315 309
228 252 253 298 265 294 289 313 357 30 21 13 23 8 352 352 355 357 358 3 360 1 358 358 358 360 358 353 347 342 340 338 334 329 325 329 324 320 321 317 315 310 302 295
322 237 253 260 245 246 260 316 12 11 2 18 12 12 2 353 357 1 5 2 359 356 355 356 356 356 353 348 343 337 334 331 328 329 330 325 317 311 304 302 301 301 297 296
259 284 301 260 262 281 200 121 116 25 3 2 354 2 357 0 2 356 357 355 355 352 351 346 348 350 348 347 341 334 329 326 327 325 321 317 312 298 286 283 280 283 282 283
250 296 273 290 322 345 177 352 6 2 359 3 327 334 337 346 350 348 351 352 349 347 346 345 344 343 340 343 341 335 326 322 320 315 314 312 308 304 300 287 286 283 278 276
249 240 263 280 282 192 187 220 269 319 335 329 335 328 335 336 346 346 348 349 342 344 345 341 340 339 338 335 334 331 322 316 314 310 307 306 307 303 305 303 290 280 273 273
234 261 279 241 261 203 210 196 299 305 304 304 314 326 331 335 342 344 344 337 335 336 332 332 333 326 332 330 322 319 315 311 304 305 306 308 310 304 299 297 299 295 283 271
220 211 265 302 205 207 221 267 288 303 315 314 319 319 323 322 328 329 327 324 324 321 323 326 325 327 333 335 329 325 317 311 310 309 305 302 303 300 297 295 290 291 290 277
176 186 191 238 278 276 273 275 280 299 311 314 312 312 308 299 307 319 319 322 318 320 315 317 321 327 340 339 331 327 320 315 314 312 307 304 305 303 304 303 301 298 293 286
175 224 232 268 305 310 300 298 284 295 307 310 314 319 307 296 308 307 309 313 310 319 324 325 322 333 338 337 331 322 316 311 309 314 312 309 309 305 301 296 293 292 291 287
122 93 82 57 351 338 333 327 324 324 324 324 324 322 315 309 305 309 308 315 310 306 309 328 327 338 339 332 332 324 315 312 313 315 313 312 311 304 295 291 293 292 290 281
123 119 91 41 5 333 321 332 340 333 338 345 342 331 323 313 309 309 311 311 308 310 316 323 338 333 333 332 336 325 318 317 318 319 316 314 316 314 307 301 298 300 298 287
149 148 146 57 15 13 342 356 358 348 343 339 334 334 332 330 336 326 322 309 304 307 325 331 330 333 334 335 339 330 327 326 323 325 325 325 328 325 325 325 325 316 317 305
200 195 201 231 269 347 42 5 359 0 358 9 1 346 334 329 336 337 336 335 345 341 332 330 334 332 333 337 338 334 334 333 332 331 332 336 334 334 338 340 336 336 334 333
214 210 213 210 218 340 3 358 4 7 11 5 -0 352 346 337 335 335 333 328 329 330 332 325 331 335 339 342 337 335 336 338 337 338 340 344 342 341 348 354 354 357 5 17
214 208 201 189 181 286 338 358 4 2 2 4 355 354 340 326 323 327 329 332 333 329 327 327 336 337 343 345 343 344 343 345 344 341 343 352 353 353 357 4 7 15 23 31
209 206 199 184 184 212 300 334 337 330 350 3 355 355 348 339 333 331 324 324 330 340 336 336 339 341 349 352 354 355 354 353 354 350 353 2 8 6 8 15 16 25 33 38
211 202 185 181 206 226 217 318 335 342 349 343 349 353 355 346 322 323 336 350 350 355 346 356 356 2 5 6 3 1 1 2 4 1 1 5 11 16 21 27 33 37 42 49
190 195 197 197 206 196 191 183 267 311 325 331 340 349 354 355 355 355 1 12 14 20 14 11 15 16 16 15 10 6 6 6 9 6 4 6 11 17 22 29 36 44 47 54
197 186 176 173 211 202 193 193 218 269 286 328 332 352 358 1 5 9 14 17 21 21 19 22 20 19 21 21 17 13 10 9 15 16 13 12 14 17 20 24 29 36 44 49
Height
780 771 769 770 756 749 739 731 724 738 737 739 739 738 737 736 731 728 726 727 721 720 719 722 718 714 711 709 704 703 701 701 703 705 706 705 699 700 695 692 695 697 698 709
777 761 762 755 760 754 753 749 750 745 751 759 754 750 747 741 735 732 733 730 727 730 729 725 723 718 719 716 716 717 711 708 711 713 715 714 705 697 703 700 698 697 702 712
777 761 756 765 774 770 770 768 763 758 770 768 764 759 756 752 749 746 742 741 739 737 735 732 726 726 722 722 726 723 719 724 718 719 717 724 711 713 710 707 710 712 716 706
780 764 778 783 777 778 781 783 779 779 778 778 772 768 766 764 759 756 754 751 748 747 745 742 736 731 732 729 734 728 724 722 722 722 723 718 716 719 714 708 711 706 703 705
791 779 771 775 781 786 785 793 787 782 778 772 769 764 768 771 769 766 762 759 755 753 750 744 743 741 738 734 733 730 726 729 728 728 728 729 721 727 717 718 709 705 710 708
801 792 789 788 783 780 781 787 788 787 784 779 774 770 777 777 773 771 768 765 762 757 752 746 741 735 735 736 735 736 732 733 732 737 729 726 723 724 717 722 713 714 710 705
816 806 796 789 785 776 783 798 791 789 786 785 783 789 788 783 778 775 773 769 766 762 757 753 748 745 742 741 740 738 734 731 735 729 726 724 723 720 719 718 714 713 709 704
812 809 803 794 785 789 798 792 791 791 792 789 787 786 785 784 782 780 777 774 772 767 762 759 757 755 752 748 745 740 736 733 731 726 726 726 718 718 720 719 717 711 703 700
812 802 800 797 796 794 792 791 793 794 795 795 793 792 791 788 785 781 779 776 774 769 767 764 758 755 752 749 744 740 738 733 729 727 725 720 718 716 709 712 708 703 704 701
808 795 795 794 793 793 792 791 792 793 794 794 793 792 790 787 785 781 778 775 772 769 767 761 759 755 750 747 744 741 736 732 728 722 716 716 713 709 708 708 705 698 697 694
796 791 790 788 788 787 789 791 792 793 793 792 790 788 787 786 782 779 776 774 771 768 765 762 758 754 751 749 744 739 733 728 723 719 717 712 710 710 711 705 700 697 694 692
790 790 792 787 787 787 787 788 790 790 789 790 790 789 788 786 784 782 779 774 771 767 764 761 758 752 749 745 740 735 731 728 723 719 714 711 708 704 699 694 692 689 687 686
788 791 791 788 788 788 788 789 789 789 789 788 788 787 785 783 780 777 774 771 772 770 767 762 757 752 748 744 739 735 729 724 719 716 711 706 702 696 686 685 684 681 679 676
789 790 787 787 785 787 788 788 788 788 788 787 786 783 781 778 775 772 771 770 765 762 761 759 757 754 752 747 742 736 729 724 719 712 705 699 693 690 687 680 673 669 668 666
786 787 787 787 787 787 788 788 787 786 786 785 784 783 780 778 776 774 771 768 764 761 757 754 750 747 743 737 732 727 723 718 714 707 702 697 690 686 681 674 668 664 661 656
783 784 786 786 786 786 787 786 786 785 785 784 782 780 778 777 775 772 768 765 761 758 754 749 744 740 734 729 725 721 717 712 709 706 700 694 688 681 672 665 659 655 652 649
782 783 783 784 784 784 784 785 785 784 784 782 780 778 776 772 770 766 763 760 756 752 749 745 741 738 734 730 726 722 718 713 708 702 695 689 682 674 668 663 657 650 644 640
782 783 785 785 786 785 784 784 784 783 781 780 778 775 773 771 768 764 759 756 752 748 745 742 740 736 732 729 725 720 715 710 704 698 692 687 680 674 667 661 654 648 642 637
783 784 785 786 786 785 785 784 783 782 780 778 775 773 771 767 764 760 755 752 749 745 741 740 737 734 731 726 722 717 712 708 702 697 691 685 678 672 665 659 652 647 641 636
783 784 784 784 784 784 784 784 783 781 779 776 774 771 768 764 761 756 752 749 747 744 740 738 735 731 728 723 719 714 709 705 699 693 686 679 672 665 658 651 644 639 635 630
780 782 782 783 783 784 784 783 782 780 778 776 774 772 769 765 761 757 751 747 745 742 739 736 733 729 725 721 716 712 708 703 697 691 684 677 670 663 657 650 645 640 634 628
778 778 779 781 782 782 782 781 781 779 778 776 774 772 769 765 760 756 753 750 745 741 738 734 731 728 724 719 716 711 706 702 697 691 685 679 673 666 659 652 646 641 636 632
774 776 778 779 779 780 780 780 779 778 776 775 773 771 768 765 762 757 750 746 743 739 736 732 729 726 722 719 716 711 707 703 698 693 687 681 675 668 663 657 652 647 641 637
771 772 773 775 776 777 777 778 777 777 775 774 772 770 767 762 757 756 752 746 741 737 734 731 728 725 721 718 715 711 707 703 698 694 689 683 678 673 667 662 657 653 648 644
765 768 770 772 773 775 775 776 776 776 774 773 772 770 767 764 762 754 749 744 739 736 733 731 728 725 722 718 715 712 708 705 701 696 692 687 682 678 673 668 664 660 657 654
761 763 765 766 768 770 772 773 774 774 773 772 770 768 765 762 758 753 749 744 740 737 735 732 729 726 723 720 717 714 710 706 702 698 694 689 686 682 679 676 672 668 665 662
757 759 762 764 767 767 768 770 771 771 771 770 769 766 763 760 757 753 749 745 742 738 736 734 731 728 725 722 719 715 712 708 704 700 697 693 690 687 684 681 677 674 672 669